Flag for France Weather past 2 weeks in Ajaccio, Corsica, France

Now
45 °F

Clear.


Feels Like: 41 °F
Forecast: 53 / 65 °F
Wind: 6 mph from Northeast

Location: Ajaccio Airport


UV Index: 3 (Moderate)

Visibility: N/A


Pressure: 29.71 "Hg

Humidity: 93%

Dew point: 43 °F

Location of AjaccioLocation

Historic Weather in Ajaccio

°F

Ajaccio temperature yesterday

Maximum temperature yesterday: 63 °F (at 12:00 PM)
Minimum temperature yesterday: 48 °F (at 11:30 PM)
Average temperature yesterday: 58 °F

Past Weeks' High & Low Weather Summary

 TemperatureHumidityPressure
High66 °F (Apr 12, 2:00 PM)100% (Apr 5, 4:00 AM)30.18 "Hg (Apr 5, 4:00 AM)
Low39 °F (Apr 17, 6:30 AM)32% (Apr 17, 3:30 PM)29.59 "Hg (Apr 19, 4:00 AM)
Average56 °F79%29.98 "Hg
* Reported Apr 5 2:00 AM — Apr 20 2:30 AM, Ajaccio, Weather by CustomWeather, © 2014

Note: Actual official high and low records may vary slightly from our data, if they occured in-between our weather recording intervals... More about our weather records

Advertising

Historic Weather Conditions — Data for Previous 24 hours

 ConditionsComfort  
Time TempWeatherWind HumidityBarometerVisibility
2:30 AM
Apr 20
46 °FClear.6 mph87%29.74 "HgN/A
2:00 AM46 °FClear.6 mph87%29.74 "HgN/A
1:30 AM46 °FClear.7 mph87%29.74 "HgN/A
1:00 AM48 °FPassing clouds.6 mph82%29.74 "HgN/A
12:30 AM48 °FPassing clouds.8 mph87%29.74 "HgN/A
12:00 AM48 °FPassing clouds.8 mph87%29.74 "HgN/A
11:30 PM
Apr 19
48 °FPassing clouds.8 mph87%29.74 "HgN/A
11:00 PM50 °FPassing clouds.8 mph82%29.74 "HgN/A
10:30 PM50 °FPassing clouds.6 mph82%29.71 "HgN/A
10:00 PM52 °FPassing clouds.3 mph77%29.71 "HgN/A
9:30 PM54 °FPassing clouds.5 mph72%29.68 "HgN/A
9:00 PM54 °FPassing clouds.2 mph72%29.68 "HgN/A
8:30 PM55 °FPassing clouds.3 mph67%29.68 "HgN/A
8:00 PM57 °FPassing clouds.3 mph67%29.65 "HgN/A
7:30 PM57 °FPassing clouds.6 mph63%29.65 "HgN/A
7:00 PM57 °FPassing clouds.6 mph63%29.65 "HgN/A
6:30 PM61 °FPassing clouds.8 mph59%29.65 "HgN/A
6:00 PM61 °FPassing clouds.10 mph55%29.65 "HgN/A
5:30 PM61 °FPassing clouds.10 mph59%29.65 "HgN/A
5:00 PM63 °FPassing clouds.12 mph56%29.65 "HgN/A
4:30 PM61 °FScattered clouds.8 mph55%29.65 "HgN/A
4:00 PM63 °FPassing clouds.8 mph52%29.65 "HgN/A
3:30 PM63 °FPassing clouds.8 mph49%29.65 "HgN/A
3:00 PM63 °FScattered clouds.9 mph49%29.65 "HgN/A
2:30 PM63 °FPassing clouds.13 mph49%29.65 "HgN/A
2:00 PM63 °FScattered clouds.12 mph49%29.65 "HgN/A
1:30 PM63 °FScattered clouds.16 mph49%29.65 "HgN/A
1:00 PM63 °FScattered clouds.16 mph52%29.65 "HgN/A
12:30 PM63 °FScattered clouds.15 mph52%29.65 "HgN/A
12:00 PM63 °FPassing clouds.16 mph49%29.62 "HgN/A
11:30 AM61 °FPassing clouds.16 mph55%29.62 "HgN/A
11:00 AM61 °FBroken clouds.17 mph48%29.62 "HgN/A
10:30 AM61 °FScattered clouds.20 mph48%29.62 "HgN/A
10:00 AM61 °FScattered clouds.21 mph55%29.62 "HgN/A
9:30 AM61 °FPassing clouds.20 mph55%29.62 "HgN/A
9:00 AM61 °FScattered clouds.21 mph59%29.62 "HgN/A
8:30 AM61 °FPartly sunny.20 mph63%29.62 "HgN/A
8:00 AM59 °FPartly sunny.21 mph72%29.62 "HgN/A
7:30 AM55 °FPassing clouds.1 mph88%29.59 "HgN/A
7:00 AM55 °FPassing clouds.5 mph88%29.59 "HgN/A
6:30 AM55 °FOvercast.2 mph82%29.59 "HgN/A
6:00 AM55 °FOvercast.3 mph82%29.59 "HgN/A
5:30 AM55 °FPassing clouds.5 mph88%29.59 "HgN/A
5:00 AM55 °FMostly cloudy.5 mph82%29.59 "HgN/A
4:30 AM55 °FPartly cloudy.5 mph82%29.59 "HgN/A
4:00 AM55 °FPassing clouds.6 mph88%29.59 "HgN/A
3:30 AM55 °FMostly cloudy.7 mph88%29.62 "HgN/A
3:00 AM55 °FPassing clouds.6 mph88%29.62 "HgN/A
Weather by CustomWeather, © 2014

See weather overview